Regional Weather Roundup
Issued by NWS Nashville, TN

Home | Current Version | Previous Version | Text Only | Print | Product List | Glossary On
Versions: 1 2 3 4 5 6 7 8 9 10 11 12 13 14 15 16 17 18 19 20 21 22 23 24 25 26 27 28 29 30 31 32 33 34 35 36 37 38 39 40 41 42 43 44 45 46 47 48 49 50
000
ASUS44 KOHX 260910
RWROHX
MIDDLE TENNESSEE HOURLY WEATHER ROUNDUP
NATIONAL WEATHER SERVICE NASHVILLE TN
400 AM CDT MON JUN 26 2017

NOTE: "FAIR" INDICATES FEW OR NO CLOUDS BELOW 12,000 FEET WITH
NO SIGNIFICANT WEATHER AND/OR OBSTRUCTIONS TO VISIBILITY.

* THESE REPORTS ARE NOT UNDER NWS QUALITY CONTROL AND MAY NOT
  REPORT WEATHER SUCH AS PRECIPITATION AND FOG.


TNZ005>011-023>034-057-059-062>066-078-080-261000
...NORTHERN MIDDLE TENNESSEE...

CITY           SKY/WX    TMP DP  RH WIND       PRES   REMARKS
CLARKSVILLE    CLOUDY    64  56  75 N5        30.17R
CROSSVILLE     CLEAR     52  50  93 CALM      30.21R
GALLATIN       PTCLDY    59  57  94 CALM      30.19R
NASHVILLE      MOCLDY    61  57  87 CALM      30.16S
PORTLAND       CLEAR     61  55  82 CALM      30.16R
SMYRNA         CLEAR     59  57  93 CALM      30.18R
SPARTA         CLEAR     54  54 100 CALM      30.17S
SPRINGFIELD    PTCLDY    59  57  94 CALM      30.16S
WEST NASHVILLE CLEAR     61  57  88 N10       30.15R
$$
TNZ056-058-060-061-075>077-079-093>097-261000
...SOUTHERN MIDDLE TENNESSEE...

CITY           SKY/WX    TMP DP  RH WIND       PRES   REMARKS
COLUMBIA       CLEAR     57  57 100 CALM      30.16S
FAYETTEVILLE   CLEAR     57  55  94 CALM      30.17F
MCMINNVILLE    CLEAR     55  55 100 CALM      30.19R
MURFREESBORO   CLEAR     59  55  86 CALM      30.16S
PULASKI        CLEAR     55  54  94 CALM      30.18S
SHELBYVILLE    CLEAR     55  55 100 E3        30.18R
TULLAHOMA      CLEAR     54  50  87 CALM      30.19S
WINCHESTER     CLEAR     52  52 100 CALM        N/A
$$


...KEY TO REMARKS...
VSB - VISIBILITY IN MILES
WCI - WIND CHILL INDEX
HX  - HEAT INDEX




USA.gov is the U.S. government's official web portal to all federal, state and local government web resources and services.